Weather History for KDUH - September, 2013

Change the Weather History Date:

Friday, September 20, 2013

  Actual Average (KTOL) Record (KTOL)
Temperature  
Mean Temperature 76 °F 62 °F  
Max Temperature 84 °F 74 °F 93 °F (1895)
Min Temperature 69 °F 51 °F 33 °F (1956)
Degree Days  
Heating Degree Days 0 5  
Month to date heating degree days 47  
Since 1 July heating degree days 61  
Cooling Degree Days 12 2  
Month to date cooling degree days 69  
Year to date cooling degree days 771  
Growing Degree Days 26 (Base 50)    
Moisture  
Dew Point 66 °F    
Average Humidity 79    
Maximum Humidity 94    
Minimum Humidity 51    
Precipitation  
Precipitation 0.00 in 0.10 in 0.84 in (1971)
Month to date precipitation 1.88  
Year to date precipitation 25.20  
Snow  
Snow 0.00 in 0.00 in - ()
Month to date snowfall 0.0  
Since 1 July snowfall 0.0  
Since 1 September snowfall 0.0  
Snow Depth -    
Sea Level Pressure  
Sea Level Pressure 29.84 in    
Wind  
Wind Speed 7 mph (SSW)    
Max Wind Speed 14 mph    
Max Gust Speed 22 mph    
Visibility 8 miles    
Events Rain    
T = Trace of Precipitation, MM = Missing Value Source: NWS Daily Summary

Daily Weather History Graph

Daily Weather History Graph

Search for Another Location

Airport or City:

Trip Planner

Search our weather history database for the weather conditions in past years. The results will help you decide how hot, cold, wet, or windy it might be!

Date:

Astronomy

Sep. 20, 2013 Rise Set
Actual Time 7:20 AM EDT 7:34 PM EDT
Civil Twilight 6:52 AM EDT 8:02 PM EDT
Nautical Twilight 6:19 AM EDT 8:35 PM EDT
Astronomical Twilight 5:46 AM EDT 9:08 PM EDT
Moon 8:06 PM EDT (9/20) 8:35 AM EDT (9/20)
Length of Visible Light 13h 10m
Length of Day
12h 14m
Full, 98% of the Moon is Illuminated
Sep 20
Full
Sep 26
Last Quarter
Oct 4
New
Oct 11
First Quarter
Oct 18
Full

Hourly Weather History & Observations

Time (EDT) Temp. Heat Index Dew Point Humidity Pressure Visibility Wind Dir Wind Speed Gust Speed Precip Events Conditions
12:15 AM 69.8 °F - 64.4 °F 83% 29.96 in 10.0 mi South 5.8 mph - N/A   Clear
12:35 AM 69.8 °F - 64.4 °F 83% 29.95 in 10.0 mi South 6.9 mph - N/A   Clear
12:55 AM 69.8 °F - 64.4 °F 83% 29.94 in 10.0 mi South 8.1 mph - N/A   Clear
1:15 AM 69.8 °F - 64.4 °F 83% 29.94 in 10.0 mi South 8.1 mph - N/A   Scattered Clouds
1:35 AM 69.8 °F - 64.4 °F 83% 29.94 in 10.0 mi South 5.8 mph - N/A   Scattered Clouds
1:55 AM 69.8 °F - 64.4 °F 83% 29.94 in 7.0 mi South 6.9 mph - N/A Rain Rain
2:15 AM 69.8 °F - 64.4 °F 83% 29.94 in 7.0 mi South 6.9 mph - N/A   Mostly Cloudy
2:35 AM 69.8 °F - 64.4 °F 83% 29.93 in 7.0 mi South 6.9 mph - N/A   Overcast
2:55 AM 69.8 °F - 64.4 °F 83% 29.93 in 7.0 mi South 5.8 mph - N/A   Scattered Clouds
3:15 AM 69.8 °F - 64.4 °F 83% 29.91 in 7.0 mi South 6.9 mph - N/A   Mostly Cloudy
3:35 AM 69.8 °F - 66.2 °F 88% 29.91 in 7.0 mi South 9.2 mph - N/A   Mostly Cloudy
3:55 AM 69.8 °F - 66.2 °F 88% 29.90 in 7.0 mi SSW 8.1 mph - N/A   Mostly Cloudy
4:15 AM 69.8 °F - 66.2 °F 88% 29.90 in 5.0 mi SSW 6.9 mph - N/A   Scattered Clouds
4:35 AM 69.8 °F - 66.2 °F 88% 29.89 in 5.0 mi South 6.9 mph - N/A   Scattered Clouds
4:55 AM 69.8 °F - 66.2 °F 88% 29.89 in 5.0 mi SSW 5.8 mph - N/A   Clear
5:15 AM 69.8 °F - 66.2 °F 88% 29.88 in 5.0 mi South 5.8 mph - N/A   Clear
5:35 AM 69.8 °F - 66.2 °F 88% 29.89 in 5.0 mi South 4.6 mph - N/A   Scattered Clouds
5:55 AM 69.8 °F - 66.2 °F 88% 29.89 in 5.0 mi South 4.6 mph - N/A   Mostly Cloudy
6:15 AM 69.8 °F - 66.2 °F 88% 29.88 in 4.0 mi South 4.6 mph - N/A   Mostly Cloudy
6:35 AM 69.8 °F - 66.2 °F 88% 29.88 in 4.0 mi South 4.6 mph - N/A   Scattered Clouds
6:55 AM 69.8 °F - 66.2 °F 88% 29.88 in 4.0 mi Calm Calm - N/A   Clear
7:15 AM 69.8 °F - 66.2 °F 88% 29.87 in 4.0 mi South 4.6 mph - N/A   Clear
7:35 AM 69.8 °F - 66.2 °F 88% 29.88 in 2.5 mi South 3.5 mph - N/A   Mist
7:55 AM 69.8 °F - 66.2 °F 88% 29.88 in 2.5 mi SSE 3.5 mph - N/A   Mist
8:15 AM 69.8 °F - 68.0 °F 94% 29.87 in 2.5 mi South 6.9 mph - N/A   Mist
8:35 AM 71.6 °F - 68.0 °F 88% 29.87 in 3.0 mi South 4.6 mph - N/A   Mist
8:55 AM 71.6 °F - 68.0 °F 88% 29.87 in 4.0 mi SSW 6.9 mph - N/A   Clear
9:15 AM 73.4 °F - 68.0 °F 83% 29.87 in 5.0 mi South 6.9 mph - N/A   Haze
9:35 AM 73.4 °F - 68.0 °F 83% 29.87 in 7.0 mi SW 8.1 mph - N/A   Scattered Clouds
9:55 AM 75.2 °F - 68.0 °F 78% 29.87 in 7.0 mi SW 6.9 mph - N/A   Mostly Cloudy
10:15 AM 77.0 °F - 69.8 °F 78% 29.87 in 7.0 mi SW 5.8 mph - N/A   Scattered Clouds
10:35 AM 78.8 °F - 69.8 °F 74% 29.87 in 7.0 mi SW 9.2 mph - N/A   Clear
10:55 AM 78.8 °F - 68.0 °F 69% 29.87 in 10.0 mi WSW 11.5 mph 21.9 mph N/A   Mostly Cloudy
11:15 AM 78.8 °F - 68.0 °F 69% 29.87 in 10.0 mi WSW 13.8 mph 19.6 mph N/A   Mostly Cloudy
11:35 AM 78.8 °F - 68.0 °F 69% 29.87 in 10.0 mi WSW 12.7 mph 17.3 mph N/A   Overcast
11:55 AM 78.8 °F - 68.0 °F 69% 29.86 in 10.0 mi WSW 9.2 mph - N/A   Overcast
12:15 PM 80.6 °F 83.2 °F 68.0 °F 65% 29.85 in 10.0 mi WSW 6.9 mph - N/A   Mostly Cloudy
12:35 PM 80.6 °F 83.2 °F 68.0 °F 65% 29.84 in 10.0 mi WSW 6.9 mph - N/A   Mostly Cloudy
12:55 PM 82.4 °F 85.4 °F 68.0 °F 62% 29.84 in 10.0 mi WSW 9.2 mph - N/A   Scattered Clouds
1:15 PM 82.4 °F 85.4 °F 68.0 °F 62% 29.83 in 10.0 mi SW 9.2 mph 17.3 mph N/A   Clear
1:35 PM 82.4 °F 85.4 °F 68.0 °F 62% 29.82 in 10.0 mi WSW 6.9 mph - N/A   Scattered Clouds
1:55 PM 82.4 °F 85.4 °F 68.0 °F 62% 29.82 in 10.0 mi SW 8.1 mph - N/A   Mostly Cloudy
2:15 PM 80.6 °F 83.2 °F 68.0 °F 65% 29.81 in 10.0 mi WSW 8.1 mph - N/A   Overcast
2:35 PM 82.4 °F 85.4 °F 68.0 °F 62% 29.80 in 10.0 mi SSW 6.9 mph - N/A   Mostly Cloudy
2:55 PM 84.2 °F 87.3 °F 68.0 °F 58% 29.79 in 10.0 mi WSW 9.2 mph - N/A   Scattered Clouds
3:15 PM 84.2 °F 87.3 °F 68.0 °F 58% 29.79 in 10.0 mi SW 8.1 mph - N/A   Scattered Clouds
3:35 PM 84.2 °F 85.6 °F 64.4 °F 51% 29.78 in 10.0 mi SW 9.2 mph 19.6 mph N/A   Scattered Clouds
3:55 PM 82.4 °F 83.9 °F 64.4 °F 54% 29.77 in 10.0 mi WSW 5.8 mph - N/A   Mostly Cloudy
4:15 PM 82.4 °F 83.9 °F 64.4 °F 54% 29.77 in 10.0 mi WSW 9.2 mph - N/A   Mostly Cloudy
4:35 PM 80.6 °F 82.3 °F 64.4 °F 58% 29.77 in 10.0 mi WNW 10.4 mph 17.3 mph N/A   Mostly Cloudy
4:55 PM 78.8 °F - 64.4 °F 61% 29.79 in 10.0 mi WNW 10.4 mph 17.3 mph N/A   Mostly Cloudy
5:15 PM 77.0 °F - 64.4 °F 65% 29.78 in 10.0 mi West 12.7 mph 18.4 mph N/A   Mostly Cloudy
5:35 PM 73.4 °F - 64.4 °F 73% 29.78 in 10.0 mi West 9.2 mph - N/A   Clear
5:55 PM 73.4 °F - 64.4 °F 73% 29.79 in 10.0 mi West 6.9 mph - N/A   Scattered Clouds
6:15 PM 71.6 °F - 64.4 °F 78% 29.79 in 10.0 mi West 5.8 mph - N/A Rain Light Rain
6:35 PM 71.6 °F - 64.4 °F 78% 29.79 in 10.0 mi SW 5.8 mph - N/A Rain Rain
6:55 PM 71.6 °F - 64.4 °F 78% 29.78 in 10.0 mi Calm Calm - N/A Rain Light Rain
7:15 PM 71.6 °F - 66.2 °F 83% 29.79 in 10.0 mi SSW 4.6 mph - N/A   Overcast
7:35 PM 69.8 °F - 64.4 °F 83% 29.78 in 10.0 mi SSW 5.8 mph - N/A Rain Light Rain
7:55 PM 69.8 °F - 66.2 °F 88% 29.79 in 10.0 mi SSW 5.8 mph - N/A Rain Light Rain
8:15 PM 69.8 °F - 66.2 °F 88% 29.79 in 7.0 mi SSW 4.6 mph - N/A Rain Light Rain
8:35 PM 69.8 °F - 66.2 °F 88% 29.79 in 7.0 mi SSW 5.8 mph - N/A Rain Light Rain
8:55 PM 69.8 °F - 66.2 °F 88% 29.79 in 7.0 mi SSW 4.6 mph - N/A Rain Rain
9:15 PM 69.8 °F - 66.2 °F 88% 29.79 in 7.0 mi SSW 4.6 mph - N/A Rain Rain
9:35 PM 69.8 °F - 66.2 °F 88% 29.78 in 7.0 mi SSW 5.8 mph - N/A   Drizzle
9:55 PM 69.8 °F - 68.0 °F 94% 29.78 in 7.0 mi SSW 5.8 mph - N/A   Drizzle
10:15 PM 69.8 °F - 66.2 °F 88% 29.78 in 7.0 mi SW 3.5 mph - N/A   Drizzle
10:35 PM 69.8 °F - 66.2 °F 88% 29.78 in 5.0 mi SSW 4.6 mph - N/A Rain Light Rain
10:55 PM 69.8 °F - 66.2 °F 88% 29.77 in 5.0 mi SSW 4.6 mph - N/A Rain Light Rain
11:15 PM 69.8 °F - 66.2 °F 88% 29.77 in 5.0 mi South 3.5 mph - N/A Rain Light Rain
11:35 PM 69.8 °F - 66.2 °F 88% 29.76 in 7.0 mi SSW 4.6 mph - N/A Rain Light Rain
11:55 PM 69.8 °F - 66.2 °F 88% 29.76 in 5.0 mi SSW 3.5 mph - N/A Rain Light Rain